Voltar ao catálogo

FENGYUN 1C DEB

AtivoSSO
NORAD 30556·DEBRIS·🇨🇳 China

Lançado May 10, 1999 de Taiyuan Satellite Launch Center

Loading…

Próximas Passagens (próximas 24 horas)

TLE

AtualizadoSource: Space-Track

Época: Sep 14, 2026, 11:15 UTC

1 30556U 99025AKW 26257.46929397  .00000019  00000-0  39547-4 0  9997
2 30556  98.8022 245.7210 0065930 190.8441 321.1666 14.01654820  1132

Acompanhe FENGYUN 1C DEB em tempo real com AllMySat

Download on the App Store